Weather Roundup
Issued by NWS

Home | Current Version | Previous Version | Text Only | Print | Product List | Glossary On
Versions: 1 2 3 4 5 6 7 8 9 10 11 12 13 14 15 16 17 18 19 20 21 22 23 24 25 26 27 28 29 30 31 32 33 34 35 36 37 38 39 40 41 42 43 44 45 46 47 48 49 50
000
NZUS93 KARX 120759
HRRWXR

CURRENT HOURLY OBSERVATIONS ACROSS
MUCH OF THE UPPER MISSISSIPPI VALLEY
NATIONAL WEATHER SERVICE LA CROSSE WI
300 AM CDT SAT JUL 12 2014


...SOUTHEAST MINNESOTA...


CITY           SKY/WX    TMP DP  RH WIND       PRES   REMARKS
ROCHESTER      CLOUDY    68  66  93 S6        30.03F FOG
ROCHESTER/MAYO CLOUDY    68  66  93 SE5       30.02S
WINONA         CLOUDY    70  66  88 CALM      30.00F
AUSTIN         CLOUDY    70  68  94 CALM      30.01F FOG
ALBERT LEA     PTCLDY    70  68  94 CALM      30.01F FOG
DODGE CENTER   CLEAR     70  66  88 SW7       30.02S FOG
PRESTON        CLOUDY    67  66  96 S5        30.04S FOG
OWATONNA       PTCLDY    70  66  88 S3        30.01S FOG
FARIBAULT      PTCLDY    72  64  78 S5        30.01S HAZE
$$

...ELSEWHERE IN MINNESOTA...


CITY           SKY/WX    TMP DP  RH WIND       PRES   REMARKS
MINNEAPOLIS    CLOUDY    72  69  90 S5        29.98F
INTNL FALLS    CLEAR     55  53  93 NW3       29.97F
DULUTH         CLOUDY    65  63  93 W7        29.98F FOG
RED WING       CLOUDY    72  68  88 CALM      29.98F
REDWOOD FALLS  MOCLDY    72  71  97 S5        29.98S FOG
MANKATO        MOCLDY    70  64  83 S5        29.99F
WORTHINGTON    CLOUDY    73  70  88 S9        30.05R
FAIRMONT       MOCLDY    68  64  88 S5        30.01R
$$

...SOUTHWEST WISCONSIN...


CITY           SKY/WX    TMP DP  RH WIND       PRES   REMARKS
LA CROSSE      CLOUDY    71  66  84 E3        30.00F
PRAIRIE DU CHI PTCLDY    69  65  87 E3        30.01F
BOSCOBEL       CLOUDY    70  66  87 CALM      30.02F
LONE ROCK      NOT AVBL
PLATTEVILLE    CLOUDY    69  65  88 SE3       30.04F
FORT MC COY    CLOUDY    64  62  93 CALM      30.03F
VIROQUA        CLOUDY    68  65  89 SE3       30.04F
WIS DELLS      CLOUDY    69  61  76 CALM      30.04F
$$

...ELSEWHERE IN WISCONSIN...


CITY           SKY/WX    TMP DP  RH WIND       PRES   REMARKS
MILWAUKEE      MOCLDY    70  59  68 S7        30.06F
MADISON        CLOUDY    72  62  71 S6        30.04F
GREEN BAY      MOCLDY    64  58  80 S3        30.03F
EAU CLAIRE     NOT AVBL
BLACK RVR FLS  CLOUDY    67  66  97 CALM      30.01F
MEDFORD        MOCLDY    64  63  94 SW3       30.03F
WAUSAU         MOCLDY    67  61  81 CALM      30.01F
WIS RAPIDS     CLOUDY    68  62  81 CALM      30.04F
MARSHFIELD     MOCLDY    66  63  90 S7        30.02F
RICE LAKE      MOCLDY    65  64  94 CALM      30.02F FOG
$$

...NORTHEAST IOWA...


CITY           SKY/WX    TMP DP  RH WIND       PRES   REMARKS
WATERLOO       MOCLDY    71  68  90 CALM      29.99F
DUBUQUE        PTCLDY    68  66  93 S7        30.03F
DECORAH          N/A    N/A N/A N/A MISG        N/A
MASON CITY     FOG       64  64 100 CALM      30.01F VSB 1/2
CHARLES CITY   PTCLDY    68  66  94 E3        30.01F FOG
OELWEIN        CLOUDY    68  68 100 SE5       30.03F
$$

...ELSEWHERE IN IOWA...


CITY           SKY/WX    TMP DP  RH WIND       PRES   REMARKS
DES MOINES     CLOUDY    74  71  91 NE6       30.00R
IOWA CITY      MOCLDY    72  70  93 CALM      30.01F
FORT DODGE     CLOUDY    70  68  94 S5        30.04R
MARSHALLTOWN   CLOUDY    71  70  96 S7        29.99F FOG
CEDAR RAPIDS   MOCLDY    71  68  90 S5        30.00F
$$

...NORTHERN ILLINOIS...


CITY           SKY/WX    TMP DP  RH WIND       PRES   REMARKS
CHICAGO-OHARE  CLOUDY    73  58  59 S9        30.07F
DUPAGE         PTCLDY    72  61  68 S7        30.07F
CHICAGO-MIDWAY CLOUDY    76  61  59 S7        30.08F
MOLINE         MOCLDY    74  67  78 CALM      30.01F
ROCKFORD       MOCLDY    70  62  76 SE6       30.05F
STERLING       MOCLDY    72  64  78 SE6       30.02F
PEORIA         MOCLDY    75  67  76 S8        30.04F
$$

NOTE: "FAIR" INDICATES FEW OR NO CLOUDS BELOW 12,000 FEET WITH NO
SIGNIFICANT WEATHER AND/OR OBSTRUCTIONS TO VISIBILITY. WIND
SPEEDS ARE IN MILES-PER-HOUR.



USA.gov is the U.S. government's official web portal to all federal, state and local government web resources and services.